[[{"header":{"parameterUnit":"m.s-1","parameterCategory":1,"la1":30.2991,"la2":30.254,"lo1":-89.0895,"lo2":-89.0444,"dy":0.0017,"dx":0.0017,"nx":28,"ny":28,"refTime":"2024-07-10T03:00:00:Z","depth":0,"parameterNumber":2,"parameterNumberName":"U-component_of_WINDS"},"data":[0,0,0,0,0,0,0,0,0,0,0,0,0,0,0,0,0,0,0,0,0,0,0,0,0,0,0,0,0,0,0,0,0,0,0,0,0,0,0,0,0,0,0,0,0,0,0,0,0,0,0,0,0,0,0,0,0,0,0.668,0.6681,0,0.6746,0.6747,0.6747,0.6754,0.6753,0.6753,0.6752,0.6821,0.6824,0.6826,0,0,0,0,0,0,0,0,0,0,0,0,0,0.6561,0.6563,0.668,0.6681,0.6682,0.6746,0.6747,0.6748,0.6754,0.6753,0.6753,0.6752,0.682,0.6823,0.6826,0,0,0,0,0,0,0,0,0,0,0,0,0,0.6618,0.6564,0.668,0.6693,0.6695,0.6746,0.6747,0.6748,0.6754,0.6753,0.6752,0.6751,0.6819,0.6823,0.6827,0.687,0,0,0.6838,0.684,0,0,0,0,0,0,0,0,0.6615,0.6623,0.669,0.6692,0.6694,0.6741,0.673,0.6789,0.6755,0.6732,0.6752,0.6751,0.6795,0.6801,0.6816,0.6873,0.6876,0.6838,0.684,0.6842,0.6843,0,0,0,0,0,0,0,0.6611,0.662,0.6706,0.6691,0.6693,0.6695,0.6702,0.6741,0.6769,0.6734,0.6734,0.6742,0.6796,0.6812,0.6817,0.6877,0.6838,0.6841,0.6844,0.6845,0.6972,0.6974,0,0,0,0,0,0,0.6605,0.6617,0.6704,0.6708,0.6651,0.6698,0.6706,0.6727,0.6768,0.6773,0.6743,0.6742,0.6806,0.6813,0.682,0.6872,0.6842,0.6846,0.6848,0.6971,0.6973,0.6974,0,0,0,0,0,0,0.6602,0.6612,0.6701,0.6663,0.6674,0.6702,0.6725,0.6729,0.6744,0.6775,0.678,0.6754,0.6806,0.6814,0.6857,0.6875,0.6847,0.6851,0.697,0.6972,0.6973,0.6978,0,0,0,0,0,0,0.6599,0.6611,0.6628,0.6663,0.6676,0.6737,0.6726,0.6731,0.6751,0.675,0.6787,0.6792,0.6805,0.6851,0.6861,0.6879,0.6853,0.6968,0.6971,0.6973,0.6977,0.698,0.6983,0,0,0,0,0,0.6594,0.6627,0.6629,0.6639,0.6697,0.6738,0.6746,0.6761,0.6752,0.6769,0.6788,0.679,0.6871,0.6856,0.6866,0.6886,0.6967,0.697,0.6973,0.6975,0.6979,0.6983,0,0,0,0,0,0,0.6594,0.6632,0.6634,0.6679,0.6706,0.6739,0.6761,0.6765,0.6795,0.6793,0.6811,0.6819,0.686,0.6878,0.686,0.693,0.6919,0.6923,0.6917,0.6921,0.6924,0.6919,0.6857,0,0,0,0,0,0.66,0.663,0.6661,0.6698,0.6711,0.6734,0.6752,0.6761,0.6789,0.6801,0.6823,0.6851,0.6882,0.6903,0.6934,0.6979,0.6987,0.6998,0.7001,0.7004,0.7008,0.7032,0.7037,0.6983,0.6983,0.6982,0,0,0.6611,0.6635,0.6653,0.6699,0.672,0.675,0.6743,0.6776,0.6799,0.6806,0.6847,0.6865,0.6896,0.694,0.6961,0.6956,0.7024,0.7007,0.7009,0.7011,0.7035,0.7041,0.7045,0.6984,0.6984,0.6984,0,0,0.6647,0.6668,0.6701,0.6722,0.6754,0.6769,0.6777,0.6811,0.6822,0.6864,0.6869,0.6897,0.6951,0.6973,0.6991,0.7035,0.7038,0.7044,0.7061,0.7084,0.7089,0.7093,0.7107,0.7112,0.7048,0.7048,0.7048,0,0.6657,0.6703,0.6718,0.675,0.677,0.6777,0.681,0.683,0.6871,0.6884,0.6878,0.6945,0.6967,0.7016,0.7026,0.7041,0.7051,0.704,0.7087,0.7091,0.7095,0.7109,0.7115,0.7049,0.7049,0.7049,0.7049,0,0.6713,0.6745,0.6768,0.6806,0.6828,0.6861,0.688,0.6901,0.6908,0.6924,0.6966,0.6992,0.7028,0.704,0.7048,0.709,0.7086,0.7083,0.7072,0.71,0.7114,0.712,0.705,0.7049,0.7049,0.7049,0,0,0.6751,0.6797,0.6805,0.6822,0.6857,0.6882,0.6915,0.695,0.6967,0.6995,0.7022,0.7068,0.7065,0.7086,0.7096,0.7117,0.7148,0.7111,0.7112,0.7117,0.7196,0.7197,0.7203,0.715,0.7151,0.7152,0.7193,0,0.6791,0.6849,0.6863,0.6913,0.6942,0.6949,0.6977,0.7002,0.7017,0.7045,0.7062,0.7093,0.7088,0.71,0.7121,0.714,0.7164,0.7137,0.7176,0.7177,0.7167,0.721,0.7212,0.7249,0.7198,0.7199,0.72,0,0.6845,0.6873,0.6925,0.6956,0.6969,0.6994,0.7026,0.7053,0.7081,0.709,0.7113,0.7121,0.7155,0.7142,0.719,0.7171,0.7188,0.7199,0.7201,0.7205,0.719,0.7215,0.7261,0.7266,0.7209,0.7208,0.7207,0,0.6866,0.6917,0.6955,0.697,0.7007,0.7024,0.7041,0.7068,0.7088,0.7116,0.7129,0.7161,0.7178,0.7203,0.7219,0.7208,0.7265,0.7253,0.7273,0.7273,0.7285,0.7284,0.7334,0.7296,0.7296,0.7296,0.7296,0,0.6908,0.694,0.6965,0.6988,0.7024,0.7039,0.7074,0.7091,0.7115,0.7141,0.715,0.7174,0.7194,0.7222,0.7235,0.7271,0.7279,0.7288,0.7291,0.7287,0.7286,0.7298,0.7296,0.7298,0.7297,0.7297,0.7297,0,0.6938,0.6956,0.6998,0.7029,0.7038,0.7063,0.709,0.7113,0.7128,0.7161,0.717,0.7194,0.7227,0.7245,0.7287,0.7295,0.7336,0.7338,0.7326,0.7327,0.7346,0.7344,0.7405,0.7414,0.7371,0.7372,0.7372,0,0.6964,0.6988,0.7022,0.704,0.7057,0.7086,0.7106,0.7122,0.7142,0.7176,0.7194,0.7227,0.7254,0.7306,0.7327,0.7359,0.7361,0.7381,0.7366,0.7361,0.7361,0.7359,0.7361,0.7383,0.7384,0.7384,0.7384,0,0.7007,0.7014,0.7042,0.7073,0.7096,0.7121,0.7146,0.7161,0.7181,0.7204,0.7237,0.7258,0.7299,0.7332,0.7365,0.7382,0.7386,0.7388,0.7395,0.7391,0.7382,0.7386,0.7332,0.7387,0.7387,0.7386,0.7386,0.7386,0.7035,0.7056,0.7083,0.7114,0.7134,0.7158,0.718,0.7198,0.7226,0.726,0.7269,0.7303,0.733,0.7375,0.7393,0.742,0.7417,0.7426,0.7428,0.743,0.743,0.7378,0.7426,0.7426,0.7426,0.7426,0.7426,0,0.7077,0.7095,0.7123,0.7157,0.7181,0.7183,0.7211,0.7231,0.7261,0.7286,0.7312,0.735,0.7381,0.7405,0.7437,0.7454,0.7457,0.7462,0.746,0.7464,0.7432,0.7423,0.7459,0.7459,0.7459,0.7459,0.7459,0.7459,0.7102,0.7139,0.7149,0.7196,0.7214,0.7247,0.7263,0.7284,0.7304,0.7345,0.7371,0.7386,0.741,0.7444,0.7473,0.7479,0.749,0.7494,0.7501,0.747,0.7466,0.7463,0.7455,0.7497,0.7497,0.7531,0.7531,0.7531]},{"header":{"parameterUnit":"m.s-1","parameterCategory":1,"la1":30.2991,"la2":30.254,"lo1":-89.0895,"lo2":-89.0444,"dy":0.0017,"dx":0.0017,"nx":28,"ny":28,"refTime":"2024-07-10T03:00:00:Z","depth":0,"parameterNumber":3,"parameterNumberName":"V-component_of_WINDS"},"data":[0,0,0,0,0,0,0,0,0,0,0,0,0,0,0,0,0,0,0,0,0,0,0,0,0,0,0,0,0,0,0,0,0,0,0,0,0,0,0,0,0,0,0,0,0,0,0,0,0,0,0,0,0,0,0,0,0,0,1.834,1.834,0,1.8327,1.8327,1.8327,1.8331,1.8331,1.8331,1.8332,1.8316,1.8315,1.8314,0,0,0,0,0,0,0,0,0,0,0,0,0,1.8365,1.8365,1.834,1.834,1.834,1.8327,1.8327,1.8327,1.8331,1.8331,1.8331,1.8332,1.8316,1.8315,1.8314,0,0,0,0,0,0,0,0,0,0,0,0,0,1.8354,1.8365,1.834,1.834,1.834,1.8328,1.8327,1.8327,1.8331,1.8331,1.8331,1.8332,1.8316,1.8315,1.8314,1.83,0,0,1.8311,1.8311,0,0,0,0,0,0,0,0,1.8354,1.8353,1.834,1.834,1.834,1.8331,1.833,1.8318,1.8331,1.8334,1.8332,1.8332,1.832,1.8319,1.8316,1.8299,1.8298,1.8311,1.831,1.831,1.831,0,0,0,0,0,0,0,1.8355,1.8353,1.8335,1.834,1.834,1.834,1.8339,1.8328,1.8325,1.8334,1.8334,1.8333,1.832,1.8317,1.8315,1.8298,1.8311,1.831,1.831,1.8309,1.8269,1.8268,0,0,0,0,0,0,1.8356,1.8354,1.8336,1.8335,1.8348,1.8339,1.8338,1.8334,1.8325,1.8324,1.8332,1.8333,1.8318,1.8316,1.8315,1.8297,1.831,1.8309,1.8308,1.8269,1.8268,1.8268,0,0,0,0,0,0,1.8357,1.8355,1.8336,1.8344,1.8342,1.8338,1.8334,1.8333,1.8329,1.8324,1.8323,1.8329,1.8318,1.8316,1.8304,1.8296,1.8309,1.8308,1.827,1.8269,1.8268,1.8261,0,0,0,0,0,0,1.8358,1.8355,1.835,1.8344,1.8342,1.8326,1.8333,1.8333,1.8328,1.8329,1.8321,1.832,1.8319,1.8305,1.8303,1.8295,1.8307,1.827,1.8269,1.8268,1.8262,1.826,1.8259,0,0,0,0,0,1.8358,1.8348,1.835,1.8347,1.8336,1.8326,1.8324,1.8323,1.8328,1.8322,1.8319,1.832,1.8298,1.8304,1.8301,1.8293,1.8271,1.827,1.8268,1.8263,1.8261,1.8259,0,0,0,0,0,0,1.8352,1.8347,1.8349,1.8337,1.8332,1.8326,1.8319,1.8321,1.8314,1.8314,1.8313,1.8311,1.8298,1.8295,1.8301,1.8279,1.8285,1.8283,1.8281,1.8279,1.8278,1.8279,1.8306,0,0,0,0,0,1.8349,1.8343,1.8338,1.8328,1.8325,1.8323,1.8318,1.8318,1.8313,1.831,1.8306,1.8299,1.8291,1.8285,1.8277,1.8262,1.826,1.8255,1.8254,1.8252,1.825,1.8242,1.8239,1.8264,1.8264,1.8264,0,0,1.8344,1.834,1.8336,1.8327,1.8323,1.8314,1.8321,1.8312,1.8306,1.8308,1.8296,1.8293,1.8286,1.8272,1.8265,1.8268,1.8243,1.8251,1.825,1.8249,1.824,1.8238,1.8236,1.8264,1.8264,1.8264,0,0,1.8329,1.8326,1.8316,1.8312,1.8307,1.8305,1.8303,1.8297,1.8295,1.8283,1.8285,1.8277,1.8262,1.8257,1.8252,1.8235,1.8236,1.8232,1.8224,1.8215,1.8213,1.8211,1.8204,1.8202,1.8231,1.8231,1.8231,0,1.8322,1.831,1.8311,1.8302,1.8298,1.8301,1.8291,1.8287,1.8278,1.8274,1.8278,1.826,1.8255,1.8239,1.8235,1.8232,1.8228,1.8233,1.8214,1.8212,1.821,1.8203,1.8201,1.823,1.8231,1.8231,1.8231,0,1.8302,1.8294,1.8287,1.828,1.8274,1.8265,1.8263,1.8258,1.8258,1.8256,1.8243,1.8238,1.8228,1.8225,1.8225,1.8209,1.8211,1.8214,1.822,1.8207,1.8201,1.8198,1.823,1.823,1.823,1.823,0,0,1.8282,1.8275,1.8273,1.8269,1.8263,1.8256,1.8247,1.8238,1.8233,1.8227,1.8218,1.8206,1.8209,1.8204,1.8203,1.8196,1.8181,1.8199,1.8199,1.8195,1.8162,1.8159,1.8157,1.8182,1.8182,1.8182,1.8163,0,1.8266,1.825,1.825,1.8235,1.8227,1.823,1.8221,1.8216,1.8214,1.8206,1.8203,1.8194,1.8199,1.8196,1.8189,1.8185,1.8174,1.8186,1.8173,1.8172,1.8174,1.8153,1.815,1.8133,1.816,1.816,1.816,0,1.8245,1.8239,1.8223,1.8218,1.8214,1.8207,1.8199,1.8192,1.8186,1.8185,1.8179,1.8179,1.8168,1.8175,1.816,1.8168,1.8162,1.816,1.8159,1.8157,1.8165,1.815,1.8127,1.8124,1.8156,1.8156,1.8157,0,1.823,1.8219,1.8207,1.8204,1.8198,1.8193,1.819,1.8184,1.8179,1.8172,1.8168,1.816,1.8155,1.8147,1.8145,1.8151,1.8129,1.8136,1.8127,1.8127,1.8121,1.8121,1.8097,1.812,1.812,1.812,1.812,0,1.8212,1.8202,1.8201,1.8194,1.8183,1.8183,1.8171,1.8169,1.8163,1.8155,1.8157,1.8149,1.8147,1.8139,1.8137,1.8123,1.8121,1.8119,1.8119,1.8119,1.8119,1.8114,1.8115,1.8119,1.8119,1.8119,1.8119,0,1.8194,1.8193,1.8181,1.8176,1.8175,1.8167,1.8162,1.8155,1.8153,1.8143,1.814,1.8137,1.8127,1.8124,1.8112,1.811,1.8095,1.8096,1.8097,1.8097,1.8087,1.8087,1.8058,1.8053,1.808,1.808,1.8079,0,1.8181,1.8174,1.8169,1.8164,1.8161,1.8153,1.8148,1.8148,1.8142,1.8134,1.8128,1.8118,1.811,1.8094,1.809,1.808,1.808,1.807,1.8079,1.8079,1.8079,1.8079,1.8078,1.8068,1.8068,1.8068,1.8068,0,1.8159,1.8159,1.8153,1.8145,1.8139,1.8134,1.8128,1.8124,1.8122,1.8116,1.8106,1.81,1.8088,1.8078,1.8068,1.8064,1.8065,1.8066,1.8063,1.8062,1.8062,1.8061,1.8092,1.8066,1.8066,1.8066,1.8066,1.8066,1.8143,1.8136,1.8132,1.8124,1.812,1.8114,1.8107,1.8105,1.8097,1.8088,1.8088,1.8077,1.807,1.8058,1.8053,1.8044,1.8046,1.8042,1.8041,1.804,1.8039,1.8065,1.8042,1.8042,1.8042,1.8042,1.8042,0,1.812,1.8117,1.811,1.8103,1.8096,1.8099,1.8093,1.8087,1.8078,1.8072,1.8065,1.8053,1.8043,1.8039,1.8029,1.8022,1.8022,1.8019,1.8019,1.8018,1.8037,1.804,1.8019,1.8019,1.8019,1.8019,1.8019,1.8019,1.8107,1.8096,1.8095,1.8082,1.8079,1.8069,1.8065,1.806,1.8055,1.8042,1.8035,1.8032,1.8026,1.8016,1.8007,1.8006,1.8001,1.7998,1.7997,1.8014,1.8017,1.8019,1.8022,1.7997,1.7997,1.7978,1.7978,1.7978]}]]